| time (UTC) | temp F | wind direction | speed MPH | gust MPH | rain 1hr in | rain 24hr in | rain mn in | humidity % | barometer mb |
| 20260510201257 | 85 | 345 | 2.0 | 9.0 | 0.00 | 0.00 | 0.00 | 42 | 1012.6 |
| 20260510200536 | 86 | 55 | 3.0 | 9.0 | 0.00 | 0.00 | 0.00 | 40 | 1012.6 |
| 20260510200036 | 85 | 101 | 3.0 | 9.0 | 0.00 | 0.00 | 0.00 | 43 | 1012.6 |
| 20260510195534 | 85 | 351 | 3.0 | 10.0 | 0.00 | 0.00 | 0.00 | 43 | 1012.7 |
| 20260510195034 | 85 | 79 | 4.0 | 11.0 | 0.00 | 0.00 | 0.00 | 43 | 1012.8 |
| 20260510194534 | 85 | 83 | 3.0 | 11.0 | 0.00 | 0.00 | 0.00 | 43 | 1012.8 |
| 20260510194033 | 85 | 107 | 2.0 | 9.0 | 0.00 | 0.00 | 0.00 | 42 | 1012.8 |
| 20260510193528 | 85 | 70 | 2.0 | 6.0 | 0.00 | 0.00 | 0.00 | 43 | 1012.9 |
| 20260510193027 | 83 | 53 | 2.0 | 5.0 | 0.00 | 0.00 | 0.00 | 41 | 1012.9 |
| 20260510192749 | 84 | 15 | 2.0 | 8.0 | 0.00 | 0.00 | 0.00 | 41 | 1013.0 |
| 20260510192027 | 84 | 28 | 3.0 | 8.0 | 0.00 | 0.00 | 0.00 | 42 | 1013.0 |
| 20260510191524 | 84 | 86 | 3.0 | 8.0 | 0.00 | 0.00 | 0.00 | 42 | 1013.0 |
| 20260510191025 | 83 | 95 | 2.0 | 7.0 | 0.00 | 0.00 | 0.00 | 43 | 1013.0 |
| 20260510190523 | 83 | 130 | 2.0 | 5.0 | 0.00 | 0.00 | 0.00 | 42 | 1013.1 |
| 20260510190023 | 82 | 348 | 2.0 | 5.0 | 0.00 | 0.00 | 0.00 | 42 | 1013.1 |
| 20260510185523 | 84 | 302 | 2.0 | 5.0 | 0.00 | 0.00 | 0.00 | 40 | 1013.2 |
| 20260510185022 | 83 | 245 | 2.0 | 6.0 | 0.00 | 0.00 | 0.00 | 42 | 1013.3 |
| 20260510184523 | 82 | 312 | 3.0 | 8.0 | 0.00 | 0.00 | 0.00 | 42 | 1013.3 |
| 20260510184022 | 82 | 285 | 3.0 | 8.0 | 0.00 | 0.00 | 0.00 | 42 | 1013.2 |
| 20260510183519 | 81 | 335 | 3.0 | 9.0 | 0.00 | 0.00 | 0.00 | 43 | 1013.2 |
| 20260510183010 | 81 | 351 | 3.0 | 9.0 | 0.00 | 0.00 | 0.00 | 42 | 1013.2 |
| 20260510182731 | 80 | 350 | 3.0 | 7.0 | 0.00 | 0.00 | 0.00 | 43 | 1013.3 |
| 20260510182007 | 80 | 267 | 2.0 | 5.0 | 0.00 | 0.00 | 0.00 | 43 | 1013.3 |
| 20260510181506 | 80 | 325 | 2.0 | 5.0 | 0.00 | 0.00 | 0.00 | 43 | 1013.4 |
| 20260510181006 | 79 | 280 | 2.0 | 6.0 | 0.00 | 0.00 | 0.00 | 47 | 1013.3 |
| 20260510180504 | 79 | 315 | 3.0 | 6.0 | 0.00 | 0.00 | 0.00 | 45 | 1013.4 |
| 20260510180004 | 78 | 327 | 3.0 | 7.0 | 0.00 | 0.00 | 0.00 | 46 | 1013.4 |
| 20260510175502 | 78 | 310 | 3.0 | 7.0 | 0.00 | 0.00 | 0.00 | 46 | 1013.4 |
| 20260510175223 | 78 | 274 | 3.0 | 7.0 | 0.00 | 0.00 | 0.00 | 46 | 1013.5 |
| 20260510174501 | 77 | 307 | 3.0 | 13.0 | 0.00 | 0.00 | 0.00 | 46 | 1013.5 |
| 20260510174001 | 77 | 230 | 3.0 | 13.0 | 0.00 | 0.00 | 0.00 | 48 | 1013.5 |
| 20260510173459 | 76 | 86 | 2.0 | 7.0 | 0.00 | 0.00 | 0.00 | 50 | 1013.5 |
| 20260510173442 | 75 | 68 | 2.0 | 4.0 | 0.00 | 0.00 | 0.00 | 50 | 1013.6 |
| 20260510172719 | 75 | 5 | 2.0 | 5.0 | 0.00 | 0.00 | 0.00 | 52 | 1013.6 |
| 20260510172218 | 74 | 74 | 2.0 | 5.0 | 0.00 | 0.00 | 0.00 | 53 | 1013.6 |
| 20260510171715 | 73 | 103 | 2.0 | 5.0 | 0.00 | 0.00 | 0.00 | 54 | 1013.5 |
| 20260510170954 | 72 | 42 | 2.0 | 4.0 | 0.00 | 0.00 | 0.00 | 55 | 1013.6 |
| 20260510170455 | 72 | 70 | 2.0 | 5.0 | 0.00 | 0.00 | 0.00 | 54 | 1013.6 |
| 20260510165954 | 72 | 320 | 2.0 | 5.0 | 0.00 | 0.00 | 0.00 | 56 | 1013.6 |
| 20260510165454 | 71 | 56 | 1.0 | 5.0 | 0.00 | 0.00 | 0.00 | 56 | 1013.6 |
| 20260510165208 | 70 | 200 | 1.0 | 4.0 | 0.00 | 0.00 | 0.00 | 56 | 1013.6 |
| 20260510164459 | 71 | 202 | 2.0 | 6.0 | 0.00 | 0.00 | 0.00 | 58 | 1013.6 |
| 20260510163952 | 70 | 147 | 2.0 | 6.0 | 0.00 | 0.00 | 0.00 | 59 | 1013.5 |
| 20260510163451 | 69 | 102 | 2.0 | 7.0 | 0.00 | 0.00 | 0.00 | 59 | 1013.5 |
| 20260510162946 | 69 | 144 | 2.0 | 7.0 | 0.00 | 0.00 | 0.00 | 60 | 1013.5 |
| 20260510162446 | 68 | 202 | 1.0 | 4.0 | 0.00 | 0.00 | 0.00 | 62 | 1013.5 |
| 20260510161945 | 66 | 116 | 1.0 | 4.0 | 0.00 | 0.00 | 0.00 | 64 | 1013.5 |
| 20260510161446 | 65 | 116 | 2.0 | 6.0 | 0.00 | 0.00 | 0.00 | 65 | 1013.5 |
| 20260510160946 | 65 | 132 | 3.0 | 6.0 | 0.00 | 0.00 | 0.00 | 66 | 1013.4 |
| 20260510160706 | 64 | 140 | 2.0 | 6.0 | 0.00 | 0.00 | 0.00 | 67 | 1013.5 |
| 20260510155941 | 64 | 96 | 1.0 | 4.0 | 0.00 | 0.00 | 0.00 | 67 | 1013.5 |
| 20260510155435 | 63 | 107 | 1.0 | 4.0 | 0.00 | 0.00 | 0.00 | 69 | 1013.4 |
| 20260510154936 | 63 | 110 | 1.0 | 3.0 | 0.00 | 0.00 | 0.00 | 69 | 1013.4 |
| 20260510154436 | 62 | 109 | 1.0 | 4.0 | 0.00 | 0.00 | 0.00 | 68 | 1013.4 |
| 20260510153931 | 62 | 109 | 1.0 | 4.0 | 0.00 | 0.00 | 0.00 | 70 | 1013.4 |
| 20260510153431 | 61 | 120 | 1.0 | 4.0 | 0.00 | 0.00 | 0.00 | 70 | 1013.3 |
| 20260510152930 | 61 | 121 | 1.0 | 4.0 | 0.00 | 0.00 | 0.00 | 72 | 1013.3 |
| 20260510152655 | 60 | 130 | 1.0 | 4.0 | 0.00 | 0.00 | 0.00 | 73 | 1013.3 |
| 20260510151929 | 60 | 130 | 1.0 | 4.0 | 0.00 | 0.00 | 0.00 | 74 | 1013.2 |
| 20260510151427 | 59 | 132 | 1.0 | 4.0 | 0.00 | 0.00 | 0.00 | 75 | 1013.1 |
| 20260510150924 | 59 | 132 | 1.0 | 3.0 | 0.00 | 0.00 | 0.00 | 76 | 1013.1 |
| 20260510150423 | 58 | 134 | 1.0 | 3.0 | 0.00 | 0.00 | 0.00 | 77 | 1013.1 |
| 20260510145924 | 58 | 134 | 1.0 | 4.0 | 0.00 | 0.00 | 0.00 | 78 | 1013.0 |
| 20260510145421 | 58 | 134 | 1.0 | 4.0 | 0.00 | 0.00 | 0.00 | 78 | 1013.0 |
| 20260510144926 | 57 | 215 | 1.0 | 3.0 | 0.00 | 0.00 | 0.00 | 78 | 1013.0 |
| 20260510144418 | 57 | 217 | 0.0 | 2.0 | 0.00 | 0.00 | 0.00 | 78 | 1013.0 |
| 20260510143918 | 57 | 217 | 0.0 | 1.0 | 0.00 | 0.00 | 0.00 | 78 | 1012.9 |
| 20260510143637 | 56 | 217 | 0.0 | 1.0 | 0.00 | 0.00 | 0.00 | 78 | 1012.9 |
| 20260510143137 | 56 | 217 | 0.0 | 1.0 | 0.00 | 0.00 | 0.00 | 78 | 1013.0 |
| 20260510142416 | 56 | 217 | 0.0 | 2.0 | 0.00 | 0.00 | 0.00 | 78 | 1013.0 |
| 20260510141916 | 56 | 217 | 1.0 | 2.0 | 0.00 | 0.00 | 0.00 | 78 | 1012.9 |
| 20260510141418 | 56 | 217 | 1.0 | 3.0 | 0.00 | 0.00 | 0.00 | 78 | 1012.8 |
| 20260510141139 | 56 | 217 | 1.0 | 3.0 | 0.00 | 0.00 | 0.00 | 78 | 1012.7 |
| 20260510140413 | 56 | 218 | 1.0 | 3.0 | 0.00 | 0.00 | 0.00 | 77 | 1012.7 |
| 20260510135911 | 56 | 219 | 0.0 | 2.0 | 0.00 | 0.00 | 0.00 | 77 | 1012.6 |
| 20260510135417 | 56 | 219 | 0.0 | 2.0 | 0.00 | 0.00 | 0.00 | 77 | 1012.5 |
| 20260510134910 | 56 | 219 | 0.0 | 0.0 | 0.00 | 0.00 | 0.00 | 77 | 1012.4 |
| 20260510134630 | 56 | 219 | 0.0 | 0.0 | 0.00 | 0.00 | 0.00 | 76 | 1012.4 |
| 20260510133907 | 56 | 219 | 0.0 | 0.0 | 0.00 | 0.00 | 0.00 | 75 | 1012.4 |
| 20260510133401 | 56 | 219 | 0.0 | 1.0 | 0.00 | 0.00 | 0.00 | 75 | 1012.3 |
| 20260510132857 | 56 | 219 | 0.0 | 2.0 | 0.00 | 0.00 | 0.00 | 75 | 1012.3 |
| 20260510132358 | 56 | 219 | 1.0 | 2.0 | 0.00 | 0.00 | 0.00 | 75 | 1012.2 |
| 20260510131856 | 56 | 219 | 0.0 | 2.0 | 0.00 | 0.00 | 0.00 | 75 | 1012.2 |
| 20260510131619 | 56 | 219 | 0.0 | 2.0 | 0.00 | 0.00 | 0.00 | 75 | 1012.1 |
| 20260510131120 | 56 | 219 | 1.0 | 2.0 | 0.00 | 0.00 | 0.00 | 75 | 1012.1 |
| 20260510130355 | 56 | 219 | 1.0 | 3.0 | 0.00 | 0.00 | 0.00 | 75 | 1012.1 |
| 20260510125854 | 56 | 205 | 1.0 | 3.0 | 0.00 | 0.00 | 0.00 | 74 | 1012.0 |
| 20260510125354 | 56 | 205 | 1.0 | 2.0 | 0.00 | 0.00 | 0.00 | 74 | 1012.0 |
| 20260510124852 | 56 | 205 | 1.0 | 2.0 | 0.00 | 0.00 | 0.00 | 74 | 1012.0 |
| 20260510124625 | 57 | 205 | 1.0 | 2.0 | 0.00 | 0.00 | 0.00 | 74 | 1012.1 |
| 20260510123852 | 57 | 205 | 1.0 | 2.0 | 0.00 | 0.00 | 0.00 | 74 | 1011.9 |
| 20260510123352 | 57 | 205 | 1.0 | 2.0 | 0.00 | 0.00 | 0.00 | 74 | 1012.0 |
| 20260510122851 | 57 | 205 | 1.0 | 2.0 | 0.00 | 0.00 | 0.00 | 73 | 1011.9 |
| 20260510122350 | 57 | 205 | 1.0 | 2.0 | 0.00 | 0.00 | 0.00 | 73 | 1012.0 |
| 20260510121849 | 57 | 205 | 1.0 | 4.0 | 0.00 | 0.00 | 0.00 | 73 | 1011.9 |
| 20260510121348 | 57 | 205 | 1.0 | 4.0 | 0.00 | 0.00 | 0.00 | 73 | 1011.9 |
| 20260510120845 | 57 | 206 | 1.0 | 3.0 | 0.00 | 0.00 | 0.00 | 73 | 1011.9 |
| 20260510120607 | 57 | 206 | 1.0 | 3.0 | 0.00 | 0.00 | 0.00 | 72 | 1011.8 |
| 20260510115846 | 58 | 206 | 1.0 | 2.0 | 0.00 | 0.00 | 0.00 | 73 | 1011.9 |
| 20260510115610 | 58 | 206 | 1.0 | 3.0 | 0.00 | 0.00 | 0.00 | 72 | 1011.8 |
| 20260510114842 | 58 | 206 | 1.0 | 3.0 | 0.00 | 0.00 | 0.00 | 72 | 1011.8 |
| 20260510114342 | 58 | 207 | 1.0 | 3.0 | 0.00 | 0.00 | 0.00 | 72 | 1011.8 |
| 20260510113841 | 58 | 207 | 1.0 | 3.0 | 0.00 | 0.00 | 0.00 | 72 | 1011.8 |
| 20260510113340 | 58 | 207 | 1.0 | 3.0 | 0.00 | 0.00 | 0.00 | 72 | 1011.8 |
| 20260510112838 | 58 | 207 | 1.0 | 3.0 | 0.00 | 0.00 | 0.00 | 72 | 1011.8 |
| 20260510112338 | 59 | 208 | 1.0 | 3.0 | 0.00 | 0.00 | 0.00 | 71 | 1011.8 |
| 20260510111837 | 59 | 208 | 1.0 | 4.0 | 0.00 | 0.00 | 0.00 | 71 | 1011.8 |
| 20260510111335 | 59 | 208 | 1.0 | 4.0 | 0.00 | 0.00 | 0.00 | 71 | 1011.9 |
| 20260510111057 | 59 | 209 | 1.0 | 3.0 | 0.00 | 0.00 | 0.00 | 70 | 1011.8 |
| 20260510110334 | 59 | 209 | 1.0 | 3.0 | 0.00 | 0.00 | 0.00 | 70 | 1011.8 |
| 20260510105831 | 59 | 209 | 1.0 | 3.0 | 0.00 | 0.00 | 0.00 | 70 | 1011.8 |
| 20260510105332 | 59 | 209 | 2.0 | 4.0 | 0.00 | 0.00 | 0.00 | 69 | 1011.8 |
| 20260510105056 | 59 | 209 | 2.0 | 4.0 | 0.00 | 0.00 | 0.00 | 69 | 1011.8 |
| 20260510104330 | 59 | 207 | 2.0 | 4.0 | 0.00 | 0.00 | 0.00 | 69 | 1011.7 |
| 20260510103835 | 59 | 218 | 1.0 | 4.0 | 0.00 | 0.00 | 0.00 | 69 | 1011.7 |
| 20260510103330 | 60 | 226 | 1.0 | 2.0 | 0.00 | 0.00 | 0.00 | 69 | 1011.8 |
| 20260510102828 | 60 | 226 | 1.0 | 3.0 | 0.00 | 0.00 | 0.00 | 69 | 1011.7 |
| 20260510102325 | 60 | 227 | 1.0 | 3.0 | 0.00 | 0.00 | 0.00 | 69 | 1011.7 |
| 20260510101826 | 60 | 227 | 2.0 | 4.0 | 0.00 | 0.00 | 0.00 | 69 | 1011.6 |
| 20260510101326 | 60 | 227 | 2.0 | 4.0 | 0.00 | 0.00 | 0.00 | 69 | 1011.6 |
| 20260510100823 | 60 | 212 | 2.0 | 3.0 | 0.00 | 0.00 | 0.00 | 69 | 1011.7 |
| 20260510100323 | 60 | 211 | 2.0 | 4.0 | 0.00 | 0.00 | 0.00 | 69 | 1011.6 |
| 20260510095824 | 60 | 212 | 2.0 | 4.0 | 0.00 | 0.00 | 0.00 | 69 | 1011.6 |
| 20260510095322 | 60 | 223 | 2.0 | 4.0 | 0.00 | 0.00 | 0.00 | 69 | 1011.6 |
| 20260510094822 | 60 | 236 | 2.0 | 3.0 | 0.00 | 0.00 | 0.00 | 68 | 1011.7 |
| 20260510094322 | 60 | 238 | 2.0 | 4.0 | 0.00 | 0.00 | 0.00 | 68 | 1011.7 |
| 20260510094040 | 60 | 240 | 2.0 | 4.0 | 0.00 | 0.00 | 0.00 | 67 | 1011.7 |
| 20260510093317 | 61 | 244 | 1.0 | 3.0 | 0.00 | 0.00 | 0.00 | 67 | 1011.8 |
| 20260510092816 | 61 | 248 | 2.0 | 8.0 | 0.00 | 0.00 | 0.00 | 66 | 1011.7 |
| 20260510092532 | 62 | 249 | 3.0 | 8.0 | 0.00 | 0.00 | 0.00 | 66 | 1011.7 |
| 20260510091812 | 61 | 275 | 2.0 | 8.0 | 0.00 | 0.00 | 0.00 | 66 | 1011.7 |
| 20260510091800 | 61 | 211 | 2.0 | 4.0 | 0.00 | 0.00 | 0.00 | 66 | 1011.7 |
| 20260510090812 | 62 | 199 | 2.0 | 4.0 | 0.00 | 0.00 | 0.00 | 66 | 1011.7 |
| 20260510090311 | 62 | 215 | 2.0 | 4.0 | 0.00 | 0.00 | 0.00 | 67 | 1011.6 |
| 20260510085812 | 62 | 220 | 2.0 | 4.0 | 0.00 | 0.00 | 0.00 | 67 | 1011.5 |
| 20260510085311 | 62 | 220 | 2.0 | 4.0 | 0.00 | 0.00 | 0.00 | 67 | 1011.6 |
| 20260510084813 | 62 | 240 | 1.0 | 3.0 | 0.00 | 0.00 | 0.00 | 66 | 1011.5 |
| 20260510084310 | 63 | 244 | 0.0 | 2.0 | 0.00 | 0.00 | 0.00 | 65 | 1011.5 |
| 20260510083809 | 63 | 244 | 1.0 | 3.0 | 0.00 | 0.00 | 0.00 | 64 | 1011.4 |
| 20260510083535 | 63 | 244 | 1.0 | 3.0 | 0.00 | 0.00 | 0.00 | 64 | 1011.5 |
| 20260510082808 | 63 | 246 | 0.0 | 2.0 | 0.00 | 0.00 | 0.00 | 64 | 1011.5 |
| 20260510082308 | 63 | 246 | 1.0 | 3.0 | 0.00 | 0.00 | 0.00 | 63 | 1011.4 |
| 20260510081807 | 64 | 245 | 1.0 | 4.0 | 0.00 | 0.00 | 0.00 | 62 | 1011.5 |
| 20260510081306 | 64 | 245 | 1.0 | 4.0 | 0.00 | 0.00 | 0.00 | 62 | 1011.4 |
| 20260510080805 | 64 | 246 | 1.0 | 3.0 | 0.00 | 0.00 | 0.00 | 63 | 1011.4 |
| 20260510080306 | 64 | 240 | 1.0 | 3.0 | 0.00 | 0.00 | 0.00 | 63 | 1011.4 |
| 20260510080236 | 64 | 241 | 2.0 | 3.0 | 0.00 | 0.00 | 0.00 | 64 | 1011.4 |
| 20260510075300 | 64 | 252 | 2.0 | 3.0 | 0.00 | 0.00 | 0.00 | 63 | 1011.4 |
| 20260510074800 | 64 | 254 | 1.0 | 3.0 | 0.00 | 0.00 | 0.00 | 62 | 1011.4 |
| 20260510074300 | 64 | 255 | 1.0 | 3.0 | 0.00 | 0.00 | 0.00 | 62 | 1011.3 |
| 20260510073754 | 64 | 255 | 1.0 | 3.0 | 0.00 | 0.00 | 0.00 | 62 | 1011.3 |
| 20260510073254 | 65 | 259 | 1.0 | 3.0 | 0.00 | 0.00 | 0.00 | 61 | 1011.3 |
| 20260510072751 | 65 | 260 | 1.0 | 3.0 | 0.00 | 0.00 | 0.00 | 62 | 1011.3 |
| 20260510072252 | 65 | 256 | 1.0 | 3.0 | 0.00 | 0.00 | 0.00 | 62 | 1011.3 |
| 20260510071749 | 65 | 257 | 1.0 | 3.0 | 0.00 | 0.00 | 0.00 | 61 | 1011.3 |
| 20260510071507 | 65 | 258 | 1.0 | 3.0 | 0.00 | 0.00 | 0.00 | 61 | 1011.2 |
| 20260510070744 | 65 | 192 | 1.0 | 3.0 | 0.00 | 0.00 | 0.00 | 61 | 1011.2 |
| 20260510070241 | 65 | 192 | 1.0 | 3.0 | 0.00 | 0.00 | 0.00 | 61 | 1011.2 |
| 20260510065739 | 65 | 192 | 1.0 | 3.0 | 0.00 | 0.00 | 0.00 | 60 | 1011.2 |
| 20260510065239 | 65 | 192 | 1.0 | 3.0 | 0.00 | 0.00 | 0.00 | 60 | 1011.2 |
| 20260510064733 | 65 | 192 | 1.0 | 3.0 | 0.00 | 0.00 | 0.00 | 59 | 1011.2 |
| 20260510064232 | 65 | 192 | 2.0 | 4.0 | 0.00 | 0.00 | 0.00 | 59 | 1011.2 |
| 20260510063731 | 65 | 192 | 3.0 | 4.0 | 0.00 | 0.00 | 0.00 | 58 | 1011.2 |
| 20260510063230 | 66 | 196 | 2.0 | 4.0 | 0.00 | 0.00 | 0.00 | 57 | 1011.2 |
| 20260510062723 | 66 | 198 | 2.0 | 4.0 | 0.00 | 0.00 | 0.00 | 56 | 1011.2 |
| 20260510062221 | 66 | 198 | 2.0 | 4.0 | 0.00 | 0.00 | 0.00 | 57 | 1011.1 |
| 20260510061720 | 66 | 198 | 2.0 | 4.0 | 0.00 | 0.00 | 0.00 | 58 | 1011.2 |
| 20260510061217 | 66 | 197 | 2.0 | 4.0 | 0.00 | 0.00 | 0.00 | 57 | 1011.2 |
| 20260510060716 | 66 | 197 | 2.0 | 4.0 | 0.00 | 0.00 | 0.00 | 57 | 1011.3 |
| 20260510060215 | 67 | 198 | 2.0 | 4.0 | 0.00 | 0.00 | 0.00 | 57 | 1011.3 |
| 20260510055714 | 67 | 197 | 2.0 | 4.0 | 0.00 | 0.00 | 0.00 | 56 | 1011.3 |
| 20260510055434 | 67 | 196 | 2.0 | 4.0 | 0.00 | 0.00 | 0.00 | 56 | 1011.3 |
| 20260510054713 | 67 | 196 | 2.0 | 4.0 | 0.00 | 0.00 | 0.00 | 55 | 1011.3 |
| 20260510054211 | 67 | 195 | 2.0 | 4.0 | 0.00 | 0.00 | 0.00 | 56 | 1011.3 |
| 20260510053937 | 67 | 194 | 1.0 | 4.0 | 0.00 | 0.00 | 0.00 | 55 | 1011.3 |
| 20260510053209 | 68 | 197 | 0.0 | 2.0 | 0.00 | 0.00 | 0.00 | 53 | 1011.3 |
| 20260510052710 | 68 | 197 | 1.0 | 3.0 | 0.00 | 0.00 | 0.00 | 54 | 1011.3 |
| 20260510052207 | 68 | 197 | 1.0 | 3.0 | 0.00 | 0.00 | 0.00 | 55 | 1011.3 |
| 20260510051707 | 68 | 196 | 1.0 | 2.0 | 0.00 | 0.00 | 0.00 | 55 | 1011.3 |
| 20260510051200 | 68 | 197 | 1.0 | 3.0 | 0.00 | 0.00 | 0.00 | 55 | 1011.4 |
| 20260510050656 | 68 | 197 | 1.0 | 3.0 | 0.00 | 0.00 | 0.00 | 54 | 1011.3 |
| 20260510050155 | 68 | 197 | 2.0 | 3.0 | 0.00 | 0.00 | 0.00 | 54 | 1011.3 |
| 20260510045919 | 68 | 198 | 2.0 | 3.0 | 0.00 | 0.00 | 0.00 | 54 | 1011.3 |
| 20260510045153 | 69 | 198 | 1.0 | 3.0 | 0.00 | 0.00 | 0.00 | 54 | 1011.3 |
| 20260510044921 | 69 | 198 | 1.0 | 3.0 | 0.00 | 0.00 | 0.00 | 54 | 1011.2 |
| 20260510044149 | 69 | 199 | 1.0 | 3.0 | 0.00 | 0.00 | 0.00 | 52 | 1011.2 |
| 20260510043649 | 69 | 199 | 1.0 | 3.0 | 0.00 | 0.00 | 0.00 | 53 | 1011.2 |
| 20260510043413 | 69 | 200 | 1.0 | 3.0 | 0.00 | 0.00 | 0.00 | 54 | 1011.2 |
| 20260510042908 | 69 | 200 | 1.0 | 3.0 | 0.00 | 0.00 | 0.00 | 54 | 1011.2 |
| 20260510042141 | 69 | 200 | 1.0 | 3.0 | 0.00 | 0.00 | 0.00 | 54 | 1011.1 |
| 20260510041901 | 70 | 200 | 1.0 | 3.0 | 0.00 | 0.00 | 0.00 | 54 | 1011.1 |
| 20260510041138 | 70 | 224 | 1.0 | 2.0 | 0.00 | 0.00 | 0.00 | 54 | 1011.0 |
| 20260510040639 | 71 | 225 | 0.0 | 2.0 | 0.00 | 0.00 | 0.00 | 54 | 1011.0 |
| 20260510040138 | 71 | 225 | 0.0 | 1.0 | 0.00 | 0.00 | 0.00 | 53 | 1011.0 |
| 20260510035635 | 71 | 225 | 0.0 | 1.0 | 0.00 | 0.00 | 0.00 | 54 | 1011.0 |
| 20260510035136 | 71 | 225 | 0.0 | 0.0 | 0.00 | 0.00 | 0.00 | 54 | 1010.9 |
| 20260510034629 | 71 | 225 | 0.0 | 1.0 | 0.00 | 0.00 | 0.00 | 54 | 1010.8 |
| 20260510034127 | 71 | 225 | 1.0 | 2.0 | 0.00 | 0.00 | 0.00 | 54 | 1010.8 |
| 20260510033625 | 72 | 225 | 1.0 | 2.0 | 0.00 | 0.00 | 0.00 | 53 | 1010.7 |
| 20260510033125 | 73 | 232 | 0.0 | 2.0 | 0.00 | 0.00 | 0.00 | 52 | 1010.8 |
| 20260510032845 | 74 | 237 | 0.0 | 3.0 | 0.00 | 0.00 | 0.00 | 50 | 1010.7 |
| 20260510032120 | 74 | 237 | 0.0 | 5.0 | 0.00 | 0.00 | 0.00 | 49 | 1010.7 |
| 20260510031618 | 75 | 236 | 1.0 | 5.0 | 0.00 | 0.00 | 0.00 | 49 | 1010.6 |
| 20260510031117 | 75 | 236 | 1.0 | 5.0 | 0.00 | 0.00 | 0.00 | 48 | 1010.5 |
| 20260510030618 | 76 | 236 | 2.0 | 5.0 | 0.00 | 0.00 | 0.00 | 47 | 1010.5 |
| 20260510030117 | 76 | 246 | 1.0 | 4.0 | 0.00 | 0.00 | 0.00 | 48 | 1010.6 |
| 20260510025617 | 76 | 244 | 1.0 | 3.0 | 0.00 | 0.00 | 0.00 | 49 | 1010.5 |
| 20260510025332 | 76 | 215 | 1.0 | 4.0 | 0.00 | 0.00 | 0.00 | 48 | 1010.5 |
| 20260510024613 | 77 | 215 | 2.0 | 5.0 | 0.00 | 0.00 | 0.00 | 48 | 1010.5 |
| 20260510024113 | 77 | 184 | 3.0 | 6.0 | 0.00 | 0.00 | 0.00 | 47 | 1010.4 |
| 20260510023611 | 78 | 206 | 3.0 | 6.0 | 0.00 | 0.00 | 0.00 | 46 | 1010.4 |
| 20260510023111 | 80 | 180 | 3.0 | 9.0 | 0.00 | 0.00 | 0.00 | 45 | 1010.4 |
| 20260510022605 | 80 | 261 | 4.0 | 9.0 | 0.00 | 0.00 | 0.00 | 43 | 1010.4 |
| 20260510022105 | 81 | 225 | 4.0 | 8.0 | 0.00 | 0.00 | 0.00 | 43 | 1010.3 |
| 20260510021559 | 81 | 257 | 3.0 | 8.0 | 0.00 | 0.00 | 0.00 | 43 | 1010.3 |
| 20260510021317 | 82 | 264 | 3.0 | 7.0 | 0.00 | 0.00 | 0.00 | 43 | 1010.3 |
| 20260510020816 | 82 | 243 | 3.0 | 7.0 | 0.00 | 0.00 | 0.00 | 42 | 1010.3 |
| 20260510020057 | 82 | 254 | 4.0 | 9.0 | 0.00 | 0.00 | 0.00 | 43 | 1010.4 |
| 20260510015814 | 83 | 249 | 5.0 | 9.0 | 0.00 | 0.00 | 0.00 | 43 | 1010.4 |
| 20260510015055 | 83 | 277 | 5.0 | 9.0 | 0.00 | 0.00 | 0.00 | 43 | 1010.3 |
| 20260510014553 | 83 | 238 | 4.0 | 9.0 | 0.00 | 0.00 | 0.00 | 42 | 1010.3 |
| 20260510014052 | 83 | 243 | 5.0 | 12.0 | 0.00 | 0.00 | 0.00 | 43 | 1010.3 |
| 20260510013816 | 83 | 263 | 6.0 | 12.0 | 0.00 | 0.00 | 0.00 | 43 | 1010.3 |
| 20260510013048 | 83 | 234 | 7.0 | 14.0 | 0.00 | 0.00 | 0.00 | 43 | 1010.4 |
| 20260510012550 | 83 | 254 | 8.0 | 14.0 | 0.00 | 0.00 | 0.00 | 43 | 1010.5 |
| 20260510012319 | 84 | 242 | 8.0 | 14.0 | 0.00 | 0.00 | 0.00 | 42 | 1010.5 |
| 20260510011809 | 84 | 267 | 7.0 | 14.0 | 0.00 | 0.00 | 0.00 | 42 | 1010.5 |
| 20260510011047 | 85 | 277 | 6.0 | 12.0 | 0.00 | 0.00 | 0.00 | 42 | 1010.5 |
| 20260510010541 | 85 | 259 | 7.0 | 12.0 | 0.00 | 0.00 | 0.00 | 42 | 1010.4 |
| 20260510010041 | 85 | 265 | 7.0 | 14.0 | 0.00 | 0.00 | 0.00 | 41 | 1010.4 |
| 20260510005538 | 86 | 250 | 6.0 | 14.0 | 0.00 | 0.00 | 0.00 | 41 | 1010.4 |
| 20260510005039 | 86 | 275 | 7.0 | 13.0 | 0.00 | 0.00 | 0.00 | 41 | 1010.5 |
| 20260510004538 | 87 | 220 | 7.0 | 13.0 | 0.00 | 0.00 | 0.00 | 40 | 1010.5 |
| 20260510004037 | 87 | 275 | 7.0 | 13.0 | 0.00 | 0.00 | 0.00 | 40 | 1010.5 |
| 20260510003536 | 87 | 227 | 7.0 | 13.0 | 0.00 | 0.00 | 0.00 | 40 | 1010.4 |
| 20260510003256 | 88 | 271 | 7.0 | 12.0 | 0.00 | 0.00 | 0.00 | 40 | 1010.5 |
| 20260510002534 | 88 | 235 | 6.0 | 12.0 | 0.00 | 0.00 | 0.00 | 39 | 1010.4 |
| 20260510002033 | 89 | 290 | 5.0 | 11.0 | 0.00 | 0.00 | 0.00 | 40 | 1010.4 |
| 20260510001531 | 89 | 306 | 5.0 | 11.0 | 0.00 | 0.00 | 0.00 | 40 | 1010.3 |
| 20260510001030 | 89 | 214 | 5.0 | 12.0 | 0.00 | 0.00 | 0.00 | 40 | 1010.3 |
| 20260510000530 | 89 | 281 | 6.0 | 12.0 | 0.00 | 0.00 | 0.00 | 40 | 1010.4 |
| 20260510000243 | 89 | 227 | 6.0 | 11.0 | 0.00 | 0.00 | 0.00 | 40 | 1010.4 |
| 20260509235525 | 89 | 223 | 6.0 | 12.0 | 0.00 | 0.00 | 0.00 | 40 | 1010.4 |
| 20260509235021 | 89 | 203 | 7.0 | 13.0 | 0.00 | 0.00 | 0.00 | 39 | 1010.5 |
| 20260509234521 | 90 | 240 | 7.0 | 13.0 | 0.00 | 0.00 | 0.00 | 39 | 1010.4 |
| 20260509234021 | 90 | 274 | 7.0 | 13.0 | 0.00 | 0.00 | 0.00 | 39 | 1010.4 |
| 20260509233516 | 91 | 225 | 7.0 | 13.0 | 0.00 | 0.00 | 0.00 | 38 | 1010.4 |
| 20260509233015 | 91 | 270 | 6.0 | 12.0 | 0.00 | 0.00 | 0.00 | 38 | 1010.5 |
| 20260509232515 | 91 | 213 | 6.0 | 12.0 | 0.00 | 0.00 | 0.00 | 38 | 1010.4 |
| 20260509232015 | 91 | 211 | 7.0 | 13.0 | 0.00 | 0.00 | 0.00 | 38 | 1010.4 |
| 20260509231742 | 92 | 261 | 6.0 | 13.0 | 0.00 | 0.00 | 0.00 | 38 | 1010.5 |
| 20260509231015 | 92 | 273 | 5.0 | 12.0 | 0.00 | 0.00 | 0.00 | 38 | 1010.5 |
| 20260509230511 | 91 | 275 | 5.0 | 12.0 | 0.00 | 0.00 | 0.00 | 37 | 1010.5 |
| 20260509230233 | 92 | 336 | 5.0 | 11.0 | 0.00 | 0.00 | 0.00 | 36 | 1010.6 |
| 20260509225512 | 92 | 334 | 6.0 | 11.0 | 0.00 | 0.00 | 0.00 | 36 | 1010.6 |
| 20260509225012 | 92 | 271 | 6.0 | 12.0 | 0.00 | 0.00 | 0.00 | 37 | 1010.7 |
| 20260509224510 | 92 | 231 | 7.0 | 15.0 | 0.00 | 0.00 | 0.00 | 36 | 1010.6 |
| 20260509224009 | 92 | 278 | 6.0 | 15.0 | 0.00 | 0.00 | 0.00 | 36 | 1010.7 |
| 20260509223507 | 93 | 286 | 5.0 | 12.0 | 0.00 | 0.00 | 0.00 | 36 | 1010.8 |
| 20260509223007 | 93 | 342 | 5.0 | 12.0 | 0.00 | 0.00 | 0.00 | 35 | 1010.9 |
| 20260509222507 | 93 | 250 | 5.0 | 11.0 | 0.00 | 0.00 | 0.00 | 35 | 1010.9 |
| 20260509222007 | 94 | 297 | 5.0 | 9.0 | 0.00 | 0.00 | 0.00 | 34 | 1011.0 |
| 20260509221507 | 93 | 319 | 3.0 | 9.0 | 0.00 | 0.00 | 0.00 | 34 | 1011.0 |
| 20260509221005 | 92 | 294 | 3.0 | 11.0 | 0.00 | 0.00 | 0.00 | 33 | 1011.0 |
| 20260509220732 | 93 | 257 | 4.0 | 11.0 | 0.00 | 0.00 | 0.00 | 33 | 1011.0 |
| 20260509220004 | 93 | 274 | 4.0 | 12.0 | 0.00 | 0.00 | 0.00 | 32 | 1011.0 |
| 20260509215502 | 93 | 250 | 5.0 | 13.0 | 0.00 | 0.00 | 0.00 | 36 | 1011.1 |
| 20260509215001 | 92 | 5 | 5.0 | 13.0 | 0.00 | 0.00 | 0.00 | 35 | 1011.0 |
| 20260509214455 | 91 | 65 | 5.0 | 16.0 | 0.00 | 0.00 | 0.00 | 34 | 1011.2 |
| 20260509213954 | 91 | 102 | 5.0 | 16.0 | 0.00 | 0.00 | 0.00 | 34 | 1011.2 |
| 20260509213453 | 90 | 81 | 4.0 | 9.0 | 0.00 | 0.00 | 0.00 | 38 | 1011.3 |
| 20260509212953 | 90 | 77 | 4.0 | 11.0 | 0.00 | 0.00 | 0.00 | 38 | 1011.4 |
| 20260509212445 | 91 | 44 | 5.0 | 12.0 | 0.00 | 0.00 | 0.00 | 36 | 1011.5 |
| 20260509212422 | 90 | 19 | 5.0 | 12.0 | 0.00 | 0.00 | 0.00 | 37 | 1011.6 |
| 20260509211441 | 91 | 42 | 5.0 | 10.0 | 0.00 | 0.00 | 0.00 | 36 | 1011.7 |
| 20260509210937 | 91 | 328 | 5.0 | 10.0 | 0.00 | 0.00 | 0.00 | 35 | 1011.8 |
| 20260509210437 | 91 | 355 | 6.0 | 12.0 | 0.00 | 0.00 | 0.00 | 36 | 1011.8 |
| 20260509205937 | 90 | 344 | 6.0 | 12.0 | 0.00 | 0.00 | 0.00 | 36 | 1011.9 |
| 20260509205434 | 91 | 355 | 6.0 | 11.0 | 0.00 | 0.00 | 0.00 | 35 | 1011.9 |
| 20260509204934 | 90 | 33 | 4.0 | 11.0 | 0.00 | 0.00 | 0.00 | 36 | 1012.0 |
| 20260509204432 | 90 | 337 | 4.0 | 9.0 | 0.00 | 0.00 | 0.00 | 35 | 1012.0 |
| 20260509203932 | 91 | 355 | 4.0 | 9.0 | 0.00 | 0.00 | 0.00 | 34 | 1012.0 |
| 20260509203430 | 91 | 51 | 3.0 | 9.0 | 0.00 | 0.00 | 0.00 | 34 | 1012.1 |
| 20260509202929 | 90 | 350 | 4.0 | 9.0 | 0.00 | 0.00 | 0.00 | 33 | 1012.2 |
| 20260509202429 | 89 | 63 | 4.0 | 10.0 | 0.00 | 0.00 | 0.00 | 34 | 1012.3 |
| 20260509202153 | 89 | 37 | 4.0 | 10.0 | 0.00 | 0.00 | 0.00 | 34 | 1012.3 |
| 20260509201648 | 89 | 54 | 4.0 | 11.0 | 0.00 | 0.00 | 0.00 | 35 | 1012.3 |